Terminal Aerodrome Forecast
Issued by NWS

Home | Current Version | Previous Version | Text Only | Print | Product List | Glossary On
Versions: 1 2 3 4 5 6 7 8 9 10 11 12 13 14 15 16 17 18 19 20 21 22 23 24 25 26 27 28 29 30 31 32 33 34 35 36 37 38 39 40
000
FTUS45 KGJT 290016 AAA
TAFVEL
TAF AMD
KVEL 290016Z 2900/2924 06010KT P6SM VCSH SCT060 SCT100 BKN150
     FM290200 05005KT P6SM BKN060
     FM291800 09007KT P6SM SCT030 BKN060=

USA.gov is the U.S. government's official web portal to all federal, state and local government web resources and services.